Weather in Oktyabr'skiy

Russia / Ulyanovsk Oblast     54°20′30″N   48°42′27″E
temp.,
°C
wind,
m/s
gust,
m/s
humid.,
%
clouds,
%
prec.,
mm/h
press.,
hPa
HPBL,
m
6 march, sat
sat601:00−11sw349116 0.0 101159
04:00−11wsw489321 0.0 1012124
07:00−12w48930 0.0 1013118
10:00−11wnw48920 0.0 1015298
13:00−9nw36850 0.0 1015350
16:00−9wnw128741 0.0 101476
19:00−13s1281100 0.0 101421
22:00−14sw228474 0.0 101520
7 march, sun
sun701:00−15wsw22870 0.0 101320
04:00−15w229421 0.0 101320
07:00−15wsw239596 0.1 101327
10:00−13wsw259489 0.1 1013153
13:00−9sw369098 0.1 1011417
16:00−6sw388792 0.1 1009555
19:00−8s5118784 0.0 1007221
22:00−7s6138692 0.0 1005630
8 march, mon
mon801:00−6s91691100 0.2 1000870
04:00−4ssw91692100 0.6 997935
07:00−9wsw7158660 0.2 998447
10:00−8sw7157930 0.2 1000621
13:00−4ssw7127356 0.0 1000923
16:00−3ssw6118161 0.0 998932
19:00−5wsw61284100 1.9 997410
22:00−9wsw6148767 1.9 1001385
9 march, tue
tue901:00−10wsw510915 0.0 1002194
04:00−12wsw489310 0.0 1003153
07:00−12wsw5119264 0.1 1005363
10:00−10w599076 0.1 1007436
13:00−8wnw588586 0.0 1009804
16:00−9wnw478693 0.0 1010697
19:00−12wnw359196 0.0 1011100
22:00−13wnw379493 0.1 1013165
10 march, wed
wed1001:00−15wnw379593 0.1 1013175
04:00−15wnw489594 0.1 1013242
07:00−18wnw489597 0.1 1014246
10:00−18wnw579498 0.1 1015315
13:00−17wnw469089 0.0 1016391
16:00−16nw368977 0.0 1016481
19:00−20wnw339432 0.0 101723
22:00−21wnw349864 0.0 101837